Weather History for Greensboro, NC

Change the Weather History Date:

Saturday, September 15, 2012

  Actual Average Record
Temperature  
Mean Temperature 71 °F 70 °F  
Max Temperature 81 °F 80 °F 97 °F (1927)
Min Temperature 60 °F 61 °F 41 °F (1985)
Degree Days  
Heating Degree Days 0 1  
Month to date heating degree days 0 3  
Since 1 July heating degree days 0 4  
Cooling Degree Days 6 6  
Month to date cooling degree days 139 121  
Year to date cooling degree days 1558 1383  
Growing Degree Days 20 (Base 50)    
Moisture  
Dew Point 60 °F    
Average Humidity 71    
Maximum Humidity 90    
Minimum Humidity 51    
Precipitation  
Precipitation 0.00 in 0.14 in 1.94 in (1999)
Month to date precipitation 1.42 2.26  
Year to date precipitation 28.16 31.05  
Sea Level Pressure  
Sea Level Pressure 30.14 in    
Wind  
Wind Speed 7 mph (ENE)    
Max Wind Speed 15 mph    
Max Gust Speed 20 mph    
Visibility 10 miles    
Events      
T = Trace of Precipitation, MM = Missing Value Source: NWS Daily Summary

Daily Weather History Graph

Daily Weather History Graph

Search for Another Location

Airport:

Trip Planner

Search our weather history database for the weather conditions in past years. The results will help you decide how hot, cold, wet, or windy it might be!

Date:

Astronomy

Sep. 15, 2012 Rise Set
Actual Time 7:02 AM EDT 7:26 PM EDT
Civil Twilight 6:36 AM EDT 7:52 PM EDT
Nautical Twilight 6:06 AM EDT 8:22 PM EDT
Astronomical Twilight 5:35 AM EDT 8:52 PM EDT
Moon 6:31 AM EDT (9/15) 6:57 PM EDT (9/15)
Length of Visible Light 13h 15m
Length of Day
12h 23m
Waning Crescent, 0% of the Moon is Illuminated
Sep 15
Waning Crescent
Sep 15
New
Sep 22
First Quarter
Sep 29
Full
Oct 8
Last Quarter

Hourly Weather History & Observations

Time (EDT) Temp. Heat Index Dew Point Humidity Pressure Visibility Wind Dir Wind Speed Gust Speed Precip Events Conditions
12:54 AM 64.9 °F - 60.1 °F 84% 30.15 in 10.0 mi Calm Calm - N/A   Clear
1:54 AM 64.9 °F - 60.1 °F 84% 30.15 in 10.0 mi WNW 5.8 mph - N/A   Clear
2:54 AM 63.0 °F - 59.0 °F 87% 30.14 in 10.0 mi SW 3.5 mph - N/A   Clear
3:54 AM 63.0 °F - 57.0 °F 81% 30.13 in 10.0 mi West 4.6 mph - N/A   Clear
4:54 AM 63.0 °F - 57.0 °F 81% 30.13 in 10.0 mi West 4.6 mph - N/A   Clear
5:54 AM 62.1 °F - 57.9 °F 86% 30.13 in 10.0 mi WNW 3.5 mph - N/A   Clear
6:54 AM 62.1 °F - 57.9 °F 86% 30.16 in 10.0 mi NNW 3.5 mph - N/A   Clear
7:54 AM 64.9 °F - 59.0 °F 81% 30.17 in 10.0 mi Calm Calm - N/A   Clear
8:54 AM 68.0 °F - 60.1 °F 76% 30.18 in 10.0 mi NNE 8.1 mph - N/A   Clear
9:54 AM 73.0 °F - 60.1 °F 64% 30.19 in 10.0 mi NNE 12.7 mph - N/A   Clear
10:54 AM 75.0 °F - 60.1 °F 60% 30.19 in 10.0 mi NE 11.5 mph - N/A   Clear
11:54 AM 75.9 °F - 61.0 °F 60% 30.18 in 10.0 mi ENE 11.5 mph - N/A   Clear
12:54 PM 77.0 °F - 62.1 °F 60% 30.18 in 10.0 mi East 10.4 mph - N/A   Scattered Clouds
1:54 PM 79.0 °F - 61.0 °F 54% 30.15 in 10.0 mi ESE 5.8 mph - N/A   Scattered Clouds
2:54 PM 77.0 °F - 60.1 °F 56% 30.14 in 10.0 mi East 5.8 mph - N/A   Scattered Clouds
3:54 PM 80.1 °F 81.1 °F 61.0 °F 52% 30.11 in 10.0 mi ESE 8.1 mph - N/A   Scattered Clouds
4:54 PM 80.1 °F 81.1 °F 61.0 °F 52% 30.09 in 10.0 mi Variable 4.6 mph - N/A   Scattered Clouds
5:54 PM 77.0 °F - 61.0 °F 58% 30.10 in 10.0 mi East 4.6 mph - N/A   Clear
6:54 PM 75.0 °F - 62.1 °F 64% 30.11 in 10.0 mi East 8.1 mph - N/A   Partly Cloudy
7:54 PM 72.0 °F - 62.1 °F 71% 30.12 in 10.0 mi East 6.9 mph - N/A   Scattered Clouds
8:54 PM 70.0 °F - 62.1 °F 76% 30.12 in 10.0 mi East 6.9 mph - N/A   Scattered Clouds
9:54 PM 69.1 °F - 61.0 °F 75% 30.12 in 10.0 mi ESE 5.8 mph - N/A   Mostly Cloudy
10:54 PM 69.1 °F - 60.1 °F 73% 30.12 in 10.0 mi ESE 6.9 mph - N/A   Overcast
11:54 PM 68.0 °F - 57.9 °F 70% 30.13 in 10.0 mi ESE 8.1 mph - N/A   Overcast